"Period start","avg(HW err(1)/warn(2) (#))","avg(Visibility (m))","avg(Weather code (#))","avg(Precip intensity (mm/h))","min(HW err(1)/warn(2) (#))","max(HW err(1)/warn(2) (#))","std(HW err(1)/warn(2) (#))","med(HW err(1)/warn(2) (#))","min(Visibility (m))","max(Visibility (m))","std(Visibility (m))","med(Visibility (m))","min(Weather code (#))","max(Weather code (#))","std(Weather code (#))","med(Weather code (#))","min(Precip intensity (mm/h))","max(Precip intensity (mm/h))","std(Precip intensity (mm/h))","med(Precip intensity (mm/h))"
2013-08-28 00:00:00,0,49427,43,0.35,0,0,0,0,46238,50000,1214,50000,0,61,28,61,0.00,1.75,0.52,0.15
2013-08-28 00:10:00,0,49938,0,0.00,0,0,0,0,49384,50000,185,50000,0,0,0,0,0.00,0.00,0.00,0.00
2013-08-28 00:20:00,0,50000,0,0.00,0,0,0,0,50000,50000,0,50000,0,0,0,0,0.00,0.00,0.00,0.00
2013-08-28 00:30:00,0,49989,0,0.00,0,0,0,0,49889,50000,33,50000,0,0,0,0,0.00,0.00,0.00,0.00
2013-08-28 00:40:00,0,49960,0,0.00,0,0,0,0,49605,50000,118,50000,0,0,0,0,0.00,0.00,0.00,0.00
2013-08-28 00:50:00,0,50000,0,0.00,0,0,0,0,50000,50000,0,50000,0,0,0,0,0.00,0.00,0.00,0.00
2013-08-28 01:00:00,0,49987,0,0.00,0,0,0,0,49870,50000,39,50000,0,0,0,0,0.00,0.00,0.00,0.00
2013-08-28 01:10:00,0,50000,0,0.00,0,0,0,0,50000,50000,0,50000,0,0,0,0,0.00,0.00,0.00,0.00
2013-08-28 01:20:00,0,50000,0,0.00,0,0,0,0,50000,50000,0,50000,0,0,0,0,0.00,0.00,0.00,0.00
2013-08-28 01:30:00,0,49280,0,0.00,0,0,0,0,46298,50000,1441,50000,0,0,0,0,0.00,0.00,0.00,0.00
2013-08-28 01:40:00,0,49985,0,0.00,0,0,0,0,49846,50000,46,50000,0,0,0,0,0.00,0.00,0.00,0.00
2013-08-28 01:50:00,0,49801,0,0.00,0,0,0,0,48999,50000,398,50000,0,0,0,0,0.00,0.00,0.00,0.00
2013-08-28 02:00:00,0,49726,0,0.00,0,0,0,0,47258,50000,823,50000,0,0,0,0,0.00,0.00,0.00,0.00
2013-08-28 02:10:00,0,49588,0,0.00,0,0,0,0,45885,50000,1234,50000,0,0,0,0,0.00,0.00,0.00,0.00
2013-08-28 02:20:00,0,50000,0,0.00,0,0,0,0,50000,50000,0,50000,0,0,0,0,0.00,0.00,0.00,0.00
2013-08-28 02:30:00,0,50000,0,0.00,0,0,0,0,50000,50000,0,50000,0,0,0,0,0.00,0.00,0.00,0.00
2013-08-28 02:40:00,0,50000,0,0.00,0,0,0,0,50000,50000,0,50000,0,0,0,0,0.00,0.00,0.00,0.00
2013-08-28 02:50:00,0,49797,0,0.00,0,0,0,0,48593,50000,442,50000,0,0,0,0,0.00,0.00,0.00,0.00
2013-08-28 03:00:00,0,48695,0,0.00,0,0,0,0,42537,50000,2540,50000,0,0,0,0,0.00,0.00,0.00,0.00
2013-08-28 03:10:00,0,49045,0,0.00,0,0,0,0,45463,50000,1433,50000,0,0,0,0,0.00,0.00,0.00,0.00
2013-08-28 03:20:00,0,49475,0,0.00,0,0,0,0,47349,50000,1049,50000,0,0,0,0,0.00,0.00,0.00,0.00
2013-08-28 03:30:00,0,48497,0,0.00,0,0,0,0,44162,50000,1876,49491,0,0,0,0,0.00,0.00,0.00,0.00
2013-08-28 03:40:00,0,49706,0,0.00,0,0,0,0,47556,50000,732,50000,0,0,0,0,0.00,0.00,0.00,0.00
2013-08-28 03:50:00,0,48571,0,0.00,0,0,0,0,43203,50000,2308,50000,0,0,0,0,0.00,0.00,0.00,0.00
2013-08-28 04:00:00,0,47454,0,0.00,0,0,0,0,40504,50000,2871,47948,0,0,0,0,0.00,0.00,0.00,0.00
2013-08-28 04:10:00,0,47647,0,0.00,0,0,0,0,40758,50000,3072,48784,0,0,0,0,0.00,0.00,0.00,0.00
2013-08-28 04:20:00,0,48266,0,0.00,0,0,0,0,44513,50000,2056,49375,0,0,0,0,0.00,0.00,0.00,0.00
2013-08-28 04:30:00,0,49167,0,0.00,0,0,0,0,45423,50000,1353,49780,0,0,0,0,0.00,0.00,0.00,0.00
2013-08-28 04:40:00,0,47326,0,0.00,0,0,0,0,42763,50000,2505,47380,0,0,0,0,0.00,0.00,0.00,0.00
2013-08-28 04:50:00,0,47422,0,0.00,0,0,0,0,41020,50000,3492,49664,0,0,0,0,0.00,0.00,0.00,0.00
2013-08-28 05:00:00,0,46071,0,0.00,0,0,0,0,40673,50000,3340,46571,0,0,0,0,0.00,0.00,0.00,0.00
2013-08-28 05:10:00,0,41119,0,0.00,0,0,0,0,33135,50000,5282,41516,0,0,0,0,0.00,0.00,0.00,0.00
2013-08-28 05:20:00,0,41893,0,0.00,0,0,0,0,36728,45993,3121,41091,0,0,0,0,0.00,0.00,0.00,0.00
2013-08-28 05:30:00,0,43942,0,0.00,0,0,0,0,33661,50000,5301,46092,0,0,0,0,0.00,0.00,0.00,0.00
2013-08-28 05:40:00,0,46347,0,0.00,0,0,0,0,39398,50000,3506,47068,0,0,0,0,0.00,0.00,0.00,0.00
2013-08-28 05:50:00,0,46761,0,0.00,0,0,0,0,42705,50000,2730,46990,0,0,0,0,0.00,0.00,0.00,0.00
2013-08-28 06:00:00,0,42141,0,0.00,0,0,0,0,36344,50000,4417,42830,0,0,0,0,0.00,0.00,0.00,0.00
2013-08-28 06:10:00,0,43234,0,0.00,0,0,0,0,38479,48343,3586,44284,0,0,0,0,0.00,0.00,0.00,0.00
2013-08-28 06:20:00,0,37937,0,0.00,0,0,0,0,32382,47616,4520,36383,0,0,0,0,0.00,0.00,0.00,0.00
2013-08-28 06:30:00,0,41261,0,0.00,0,0,0,0,36347,45905,3419,40520,0,0,0,0,0.00,0.00,0.00,0.00
2013-08-28 06:40:00,0,45139,0,0.00,0,0,0,0,37503,49571,4075,47272,0,0,0,0,0.00,0.00,0.00,0.00
2013-08-28 06:50:00,0,48689,0,0.00,0,0,0,0,42619,50000,2145,49527,0,0,0,0,0.00,0.00,0.00,0.00
2013-08-28 07:00:00,0,47618,0,0.00,0,0,0,0,38833,50000,3845,50000,0,0,0,0,0.00,0.00,0.00,0.00
2013-08-28 07:10:00,0,41601,0,0.00,0,0,0,0,31915,50000,6540,41832,0,0,0,0,0.00,0.00,0.00,0.00
2013-08-28 07:20:00,0,44814,0,0.00,0,0,0,0,37112,50000,5025,47558,0,0,0,0,0.00,0.00,0.00,0.00
2013-08-28 07:30:00,0,37506,0,0.00,0,0,0,0,30860,44755,4788,37532,0,0,0,0,0.00,0.00,0.00,0.00
2013-08-28 07:40:00,0,38876,0,0.00,0,0,0,0,28147,49040,5831,38200,0,0,0,0,0.00,0.00,0.00,0.00
2013-08-28 07:50:00,0,46045,0,0.00,0,0,0,0,35849,50000,5286,49609,0,0,0,0,0.00,0.00,0.00,0.00
2013-08-28 08:00:00,0,45784,0,0.00,0,0,0,0,36318,50000,4287,46898,0,0,0,0,0.00,0.00,0.00,0.00
2013-08-28 08:10:00,0,43764,0,0.00,0,0,0,0,36658,47169,2907,44540,0,0,0,0,0.00,0.00,0.00,0.00
2013-08-28 08:20:00,0,46350,0,0.00,0,0,0,0,41934,50000,3049,46592,0,0,0,0,0.00,0.00,0.00,0.00
2013-08-28 08:30:00,0,42294,0,0.00,0,0,0,0,37738,45434,2523,42714,0,0,0,0,0.00,0.00,0.00,0.00
2013-08-28 08:40:00,0,41950,0,0.00,0,0,0,0,34872,48248,5110,42930,0,0,0,0,0.00,0.00,0.00,0.00
2013-08-28 08:50:00,0,44769,0,0.00,0,0,0,0,39735,48921,3773,46174,0,0,0,0,0.00,0.00,0.00,0.00
2013-08-28 09:00:00,0,47114,0,0.00,0,0,0,0,42234,50000,2667,47108,0,0,0,0,0.00,0.00,0.00,0.00
2013-08-28 09:10:00,0,42696,0,0.00,0,0,0,0,37596,47072,3155,43379,0,0,0,0,0.00,0.00,0.00,0.00
2013-08-28 09:20:00,0,42762,0,0.00,0,0,0,0,32451,50000,6210,42174,0,0,0,0,0.00,0.00,0.00,0.00
2013-08-28 09:30:00,0,45051,0,0.00,0,0,0,0,37226,49030,3525,46000,0,0,0,0,0.00,0.00,0.00,0.00
2013-08-28 09:40:00,0,46416,0,0.00,0,0,0,0,41164,50000,2573,46406,0,0,0,0,0.00,0.00,0.00,0.00
2013-08-28 09:50:00,0,42370,0,0.00,0,0,0,0,30712,49070,5327,43070,0,0,0,0,0.00,0.00,0.00,0.00
2013-08-28 10:00:00,0,42385,0,0.00,0,0,0,0,35194,49903,4232,41561,0,0,0,0,0.00,0.00,0.00,0.00
2013-08-28 10:10:00,0,47834,0,0.00,0,0,0,0,42043,50000,2814,50000,0,0,0,0,0.00,0.00,0.00,0.00
2013-08-28 10:20:00,0,49376,0,0.00,0,0,0,0,47451,50000,818,49752,0,0,0,0,0.00,0.00,0.00,0.00
2013-08-28 10:30:00,0,49190,0,0.00,0,0,0,0,44728,50000,1618,50000,0,0,0,0,0.00,0.00,0.00,0.00
2013-08-28 10:40:00,0,48776,0,0.00,0,0,0,0,45872,50000,1533,49639,0,0,0,0,0.00,0.00,0.00,0.00
2013-08-28 10:50:00,0,49964,0,0.00,0,0,0,0,49796,50000,72,50000,0,0,0,0,0.00,0.00,0.00,0.00
2013-08-28 11:00:00,0,49872,0,0.00,0,0,0,0,48718,50000,385,50000,0,0,0,0,0.00,0.00,0.00,0.00
2013-08-28 11:10:00,0,49036,0,0.00,0,0,0,0,45058,50000,1929,50000,0,0,0,0,0.00,0.00,0.00,0.00
2013-08-28 11:20:00,0,48478,0,0.00,0,0,0,0,44908,50000,1722,49200,0,0,0,0,0.00,0.00,0.00,0.00
2013-08-28 11:30:00,0,49079,0,0.00,0,0,0,0,45281,50000,1611,50000,0,0,0,0,0.00,0.00,0.00,0.00
2013-08-28 11:40:00,0,48625,0,0.00,0,0,0,0,45081,50000,1701,49464,0,0,0,0,0.00,0.00,0.00,0.00
2013-08-28 11:50:00,0,49284,0,0.00,0,0,0,0,47159,50000,1028,49985,0,0,0,0,0.00,0.00,0.00,0.00
2013-08-28 12:00:00,0,48280,0,0.00,0,0,0,0,44003,50000,1754,48665,0,0,0,0,0.00,0.00,0.00,0.00
2013-08-28 12:10:00,0,47960,0,0.00,0,0,0,0,42922,50000,2516,49258,0,0,0,0,0.00,0.00,0.00,0.00
2013-08-28 12:20:00,0,49927,0,0.00,0,0,0,0,49270,50000,219,50000,0,0,0,0,0.00,0.00,0.00,0.00
2013-08-28 12:30:00,0,49543,0,0.00,0,0,0,0,47695,50000,914,50000,0,0,0,0,0.00,0.00,0.00,0.00
2013-08-28 12:40:00,0,49117,0,0.00,0,0,0,0,45161,50000,1498,50000,0,0,0,0,0.00,0.00,0.00,0.00
2013-08-28 12:50:00,0,49694,0,0.00,0,0,0,0,47647,50000,714,50000,0,0,0,0,0.00,0.00,0.00,0.00
2013-08-28 13:00:00,0,49805,0,0.00,0,0,0,0,48614,50000,412,50000,0,0,0,0,0.00,0.00,0.00,0.00
2013-08-28 13:10:00,0,49787,0,0.00,0,0,0,0,48183,50000,543,50000,0,0,0,0,0.00,0.00,0.00,0.00
2013-08-28 13:20:00,0,49826,0,0.00,0,0,0,0,48258,50000,523,50000,0,0,0,0,0.00,0.00,0.00,0.00
2013-08-28 13:30:00,0,49584,0,0.00,0,0,0,0,47287,50000,879,50000,0,0,0,0,0.00,0.00,0.00,0.00
2013-08-28 13:40:00,0,49985,0,0.00,0,0,0,0,49849,50000,45,50000,0,0,0,0,0.00,0.00,0.00,0.00
2013-08-28 13:50:00,0,49906,0,0.00,0,0,0,0,49059,50000,282,50000,0,0,0,0,0.00,0.00,0.00,0.00
2013-08-28 14:00:00,0,50000,0,0.00,0,0,0,0,49996,50000,1,50000,0,0,0,0,0.00,0.00,0.00,0.00
2013-08-28 14:10:00,0,50000,0,0.00,0,0,0,0,50000,50000,0,50000,0,0,0,0,0.00,0.00,0.00,0.00
2013-08-28 14:20:00,0,49634,0,0.00,0,0,0,0,48236,50000,648,50000,0,0,0,0,0.00,0.00,0.00,0.00
2013-08-28 14:30:00,0,50000,0,0.00,0,0,0,0,50000,50000,0,50000,0,0,0,0,0.00,0.00,0.00,0.00
2013-08-28 14:40:00,0,50000,0,0.00,0,0,0,0,50000,50000,0,50000,0,0,0,0,0.00,0.00,0.00,0.00
2013-08-28 14:50:00,0,50000,0,0.00,0,0,0,0,50000,50000,0,50000,0,0,0,0,0.00,0.00,0.00,0.00
2013-08-28 15:00:00,0,50000,0,0.00,0,0,0,0,50000,50000,0,50000,0,0,0,0,0.00,0.00,0.00,0.00
2013-08-28 15:10:00,0,50000,0,0.00,0,0,0,0,50000,50000,0,50000,0,0,0,0,0.00,0.00,0.00,0.00
2013-08-28 15:20:00,0,50000,0,0.00,0,0,0,0,50000,50000,0,50000,0,0,0,0,0.00,0.00,0.00,0.00
2013-08-28 15:30:00,0,50000,0,0.00,0,0,0,0,50000,50000,0,50000,0,0,0,0,0.00,0.00,0.00,0.00
2013-08-28 15:40:00,0,50000,0,0.00,0,0,0,0,50000,50000,0,50000,0,0,0,0,0.00,0.00,0.00,0.00
2013-08-28 15:50:00,0,50000,0,0.00,0,0,0,0,50000,50000,0,50000,0,0,0,0,0.00,0.00,0.00,0.00
2013-08-28 16:00:00,0,50000,0,0.00,0,0,0,0,50000,50000,0,50000,0,0,0,0,0.00,0.00,0.00,0.00
2013-08-28 16:10:00,0,50000,0,0.00,0,0,0,0,50000,50000,0,50000,0,0,0,0,0.00,0.00,0.00,0.00
2013-08-28 16:20:00,0,50000,0,0.00,0,0,0,0,50000,50000,0,50000,0,0,0,0,0.00,0.00,0.00,0.00
2013-08-28 16:30:00,0,50000,0,0.00,0,0,0,0,50000,50000,0,50000,0,0,0,0,0.00,0.00,0.00,0.00
2013-08-28 16:40:00,0,50000,0,0.00,0,0,0,0,50000,50000,0,50000,0,0,0,0,0.00,0.00,0.00,0.00
2013-08-28 16:50:00,0,50000,0,0.00,0,0,0,0,50000,50000,0,50000,0,0,0,0,0.00,0.00,0.00,0.00
2013-08-28 17:00:00,0,50000,0,0.00,0,0,0,0,50000,50000,0,50000,0,0,0,0,0.00,0.00,0.00,0.00
2013-08-28 17:10:00,0,50000,0,0.00,0,0,0,0,50000,50000,0,50000,0,0,0,0,0.00,0.00,0.00,0.00
2013-08-28 17:20:00,0,50000,0,0.00,0,0,0,0,50000,50000,0,50000,0,0,0,0,0.00,0.00,0.00,0.00
2013-08-28 17:30:00,0,50000,0,0.00,0,0,0,0,50000,50000,0,50000,0,0,0,0,0.00,0.00,0.00,0.00
2013-08-28 17:40:00,0,50000,0,0.00,0,0,0,0,50000,50000,0,50000,0,0,0,0,0.00,0.00,0.00,0.00
2013-08-28 17:50:00,0,50000,0,0.00,0,0,0,0,50000,50000,0,50000,0,0,0,0,0.00,0.00,0.00,0.00
2013-08-28 18:00:00,0,50000,0,0.00,0,0,0,0,50000,50000,0,50000,0,0,0,0,0.00,0.00,0.00,0.00
2013-08-28 18:10:00,0,49982,0,0.00,0,0,0,0,49838,50000,51,50000,0,0,0,0,0.00,0.00,0.00,0.00
2013-08-28 18:20:00,0,50000,0,0.00,0,0,0,0,50000,50000,0,50000,0,0,0,0,0.00,0.00,0.00,0.00
2013-08-28 18:30:00,0,49940,0,0.00,0,0,0,0,49396,50000,181,50000,0,0,0,0,0.00,0.00,0.00,0.00
2013-08-28 18:40:00,0,50000,0,0.00,0,0,0,0,50000,50000,0,50000,0,0,0,0,0.00,0.00,0.00,0.00
2013-08-28 18:50:00,0,50000,0,0.00,0,0,0,0,50000,50000,0,50000,0,0,0,0,0.00,0.00,0.00,0.00
2013-08-28 19:00:00,0,49384,0,0.00,0,0,0,0,46294,50000,1263,50000,0,0,0,0,0.00,0.00,0.00,0.00
2013-08-28 19:10:00,0,50000,0,0.00,0,0,0,0,50000,50000,0,50000,0,0,0,0,0.00,0.00,0.00,0.00
2013-08-28 19:20:00,0,50000,0,0.00,0,0,0,0,50000,50000,0,50000,0,0,0,0,0.00,0.00,0.00,0.00
2013-08-28 19:30:00,0,50000,0,0.00,0,0,0,0,50000,50000,0,50000,0,0,0,0,0.00,0.00,0.00,0.00
2013-08-28 19:40:00,0,49905,0,0.00,0,0,0,0,49049,50000,285,50000,0,0,0,0,0.00,0.00,0.00,0.00
2013-08-28 19:50:00,0,50000,0,0.00,0,0,0,0,50000,50000,0,50000,0,0,0,0,0.00,0.00,0.00,0.00
2013-08-28 20:00:00,0,49975,0,0.00,0,0,0,0,49750,50000,75,50000,0,0,0,0,0.00,0.00,0.00,0.00
2013-08-28 20:10:00,0,50000,0,0.00,0,0,0,0,50000,50000,0,50000,0,0,0,0,0.00,0.00,0.00,0.00
2013-08-28 20:20:00,0,50000,0,0.00,0,0,0,0,50000,50000,0,50000,0,0,0,0,0.00,0.00,0.00,0.00
2013-08-28 20:30:00,0,49990,0,0.00,0,0,0,0,49904,50000,29,50000,0,0,0,0,0.00,0.00,0.00,0.00
2013-08-28 20:40:00,0,50000,0,0.00,0,0,0,0,50000,50000,0,50000,0,0,0,0,0.00,0.00,0.00,0.00
2013-08-28 20:50:00,0,50000,0,0.00,0,0,0,0,50000,50000,0,50000,0,0,0,0,0.00,0.00,0.00,0.00
2013-08-28 21:00:00,0,50000,0,0.00,0,0,0,0,50000,50000,0,50000,0,0,0,0,0.00,0.00,0.00,0.00
2013-08-28 21:10:00,0,50000,0,0.00,0,0,0,0,50000,50000,0,50000,0,0,0,0,0.00,0.00,0.00,0.00
2013-08-28 21:20:00,0,50000,0,0.00,0,0,0,0,50000,50000,0,50000,0,0,0,0,0.00,0.00,0.00,0.00
2013-08-28 21:30:00,0,50000,0,0.00,0,0,0,0,50000,50000,0,50000,0,0,0,0,0.00,0.00,0.00,0.00
2013-08-28 21:40:00,0,50000,0,0.00,0,0,0,0,50000,50000,0,50000,0,0,0,0,0.00,0.00,0.00,0.00
2013-08-28 21:50:00,0,50000,0,0.00,0,0,0,0,50000,50000,0,50000,0,0,0,0,0.00,0.00,0.00,0.00
2013-08-28 22:00:00,0,50000,0,0.00,0,0,0,0,50000,50000,0,50000,0,0,0,0,0.00,0.00,0.00,0.00
2013-08-28 22:10:00,0,50000,0,0.00,0,0,0,0,50000,50000,0,50000,0,0,0,0,0.00,0.00,0.00,0.00
2013-08-28 22:20:00,0,50000,0,0.00,0,0,0,0,50000,50000,0,50000,0,0,0,0,0.00,0.00,0.00,0.00
2013-08-28 22:30:00,0,49859,0,0.00,0,0,0,0,48591,50000,423,50000,0,0,0,0,0.00,0.00,0.00,0.00
2013-08-28 22:40:00,0,49999,0,0.00,0,0,0,0,49992,50000,2,50000,0,0,0,0,0.00,0.00,0.00,0.00
2013-08-28 22:50:00,0,49983,0,0.00,0,0,0,0,49828,50000,52,50000,0,0,0,0,0.00,0.00,0.00,0.00
2013-08-28 23:00:00,0,48666,0,0.00,0,0,0,0,44250,50000,1798,49585,0,0,0,0,0.00,0.00,0.00,0.00
2013-08-28 23:10:00,0,49727,0,0.00,0,0,0,0,47273,50000,818,50000,0,0,0,0,0.00,0.00,0.00,0.00
2013-08-28 23:20:00,0,48742,0,0.00,0,0,0,0,44774,50000,2005,50000,0,0,0,0,0.00,0.00,0.00,0.00
2013-08-28 23:30:00,0,49269,0,0.00,0,0,0,0,47782,50000,963,50000,0,0,0,0,0.00,0.00,0.00,0.00
2013-08-28 23:40:00,0,47827,0,0.00,0,0,0,0,42374,50000,2773,49726,0,0,0,0,0.00,0.00,0.00,0.00
2013-08-28 23:50:00,0,42605,0,0.00,0,0,0,0,35121,50000,4163,43352,0,0,0,0,0.00,0.00,0.00,0.00
